| time (UTC) | temp F | wind direction | speed MPH | gust MPH | rain 1hr in | rain 24hr in | rain mn in | humidity % | barometer mb |
| 20260506151507 | 52 | 39 | 6.0 | 14.0 | 0.00 | 0.09 | 0.09 | 78 | 1009.7 |
| 20260506151003 | 52 | 37 | 6.0 | 15.0 | 0.00 | 0.09 | 0.09 | 78 | 1009.7 |
| 20260506150722 | 53 | 36 | 6.0 | 15.0 | 0.00 | 0.09 | 0.09 | 78 | 1009.7 |
| 20260506150221 | 53 | 33 | 6.0 | 15.0 | 0.00 | 0.09 | 0.09 | 78 | 1009.6 |
| 20260506145503 | 53 | 36 | 6.0 | 15.0 | 0.00 | 0.09 | 0.09 | 78 | 1009.6 |
| 20260506145004 | 53 | 34 | 5.0 | 14.0 | 0.00 | 0.09 | 0.09 | 80 | 1009.4 |
| 20260506144722 | 53 | 42 | 4.0 | 11.0 | 0.00 | 0.09 | 0.09 | 82 | 1009.4 |
| 20260506144003 | 52 | 42 | 4.0 | 12.0 | 0.00 | 0.09 | 0.09 | 83 | 1009.4 |
| 20260506143508 | 52 | 38 | 5.0 | 13.0 | 0.00 | 0.09 | 0.09 | 83 | 1009.5 |
| 20260506143003 | 52 | 30 | 5.0 | 14.0 | 0.00 | 0.09 | 0.09 | 85 | 1009.5 |
| 20260506142718 | 52 | 27 | 5.0 | 14.0 | 0.00 | 0.09 | 0.09 | 85 | 1009.4 |
| 20260506142003 | 51 | 37 | 5.0 | 13.0 | 0.00 | 0.09 | 0.09 | 86 | 1009.4 |
| 20260506141718 | 51 | 42 | 5.0 | 13.0 | 0.00 | 0.09 | 0.09 | 86 | 1009.5 |
| 20260506141005 | 51 | 40 | 6.0 | 16.0 | 0.00 | 0.09 | 0.09 | 86 | 1009.5 |
| 20260506140505 | 51 | 41 | 4.0 | 12.0 | 0.00 | 0.09 | 0.09 | 88 | 1009.4 |
| 20260506140003 | 51 | 40 | 5.0 | 13.0 | 0.00 | 0.09 | 0.09 | 88 | 1009.4 |
| 20260506135503 | 50 | 39 | 6.0 | 14.0 | 0.00 | 0.09 | 0.09 | 88 | 1009.5 |
| 20260506135004 | 50 | 41 | 6.0 | 14.0 | 0.00 | 0.09 | 0.09 | 88 | 1009.4 |
| 20260506134503 | 50 | 35 | 5.0 | 14.0 | 0.00 | 0.09 | 0.09 | 88 | 1009.4 |
| 20260506134223 | 50 | 33 | 5.0 | 12.0 | 0.00 | 0.09 | 0.09 | 89 | 1009.6 |
| 20260506133504 | 50 | 38 | 5.0 | 14.0 | 0.00 | 0.09 | 0.09 | 89 | 1009.4 |
| 20260506133003 | 50 | 35 | 5.0 | 14.0 | 0.00 | 0.09 | 0.09 | 89 | 1009.4 |
| 20260506132504 | 50 | 29 | 6.0 | 18.0 | 0.00 | 0.09 | 0.09 | 89 | 1009.5 |
| 20260506132003 | 50 | 29 | 6.0 | 18.0 | 0.00 | 0.09 | 0.09 | 89 | 1009.5 |
| 20260506131506 | 50 | 33 | 5.0 | 12.0 | 0.00 | 0.09 | 0.09 | 90 | 1009.5 |
| 20260506131218 | 50 | 37 | 4.0 | 12.0 | 0.00 | 0.09 | 0.09 | 90 | 1009.4 |
| 20260506130506 | 50 | 31 | 4.0 | 12.0 | 0.00 | 0.09 | 0.09 | 90 | 1009.3 |
| 20260506130006 | 50 | 29 | 5.0 | 16.0 | 0.00 | 0.09 | 0.09 | 91 | 1009.3 |
| 20260506125503 | 50 | 32 | 4.0 | 16.0 | 0.01 | 0.09 | 0.09 | 91 | 1009.2 |
| 20260506125218 | 50 | 32 | 4.0 | 11.0 | 0.01 | 0.09 | 0.09 | 92 | 1009.1 |
| 20260506124717 | 50 | 30 | 5.0 | 11.0 | 0.01 | 0.09 | 0.09 | 92 | 1009.2 |
| 20260506124010 | 50 | 31 | 4.0 | 11.0 | 0.01 | 0.09 | 0.09 | 92 | 1009.2 |
| 20260506123506 | 50 | 35 | 5.0 | 14.0 | 0.01 | 0.09 | 0.09 | 92 | 1009.2 |
| 20260506123218 | 50 | 36 | 4.0 | 14.0 | 0.01 | 0.09 | 0.09 | 92 | 1009.1 |
| 20260506122503 | 49 | 30 | 4.0 | 11.0 | 0.01 | 0.09 | 0.09 | 92 | 1009.1 |
| 20260506122222 | 49 | 33 | 4.0 | 12.0 | 0.01 | 0.09 | 0.09 | 92 | 1009.1 |
| 20260506121503 | 49 | 32 | 6.0 | 15.0 | 0.02 | 0.09 | 0.09 | 91 | 1009.1 |
| 20260506121006 | 49 | 32 | 5.0 | 15.0 | 0.02 | 0.09 | 0.09 | 91 | 1009.1 |
| 20260506120503 | 49 | 24 | 3.0 | 10.0 | 0.02 | 0.09 | 0.09 | 92 | 1009.2 |
| 20260506120218 | 49 | 19 | 4.0 | 10.0 | 0.02 | 0.09 | 0.09 | 92 | 1009.1 |
| 20260506115719 | 49 | 12 | 3.0 | 10.0 | 0.01 | 0.09 | 0.09 | 91 | 1009.1 |
| 20260506115003 | 49 | 26 | 4.0 | 11.0 | 0.01 | 0.09 | 0.09 | 91 | 1009.1 |
| 20260506114503 | 49 | 27 | 4.0 | 11.0 | 0.01 | 0.09 | 0.09 | 91 | 1009.0 |
| 20260506114005 | 49 | 27 | 4.0 | 10.0 | 0.01 | 0.09 | 0.09 | 92 | 1008.9 |
| 20260506113505 | 49 | 35 | 4.0 | 14.0 | 0.01 | 0.09 | 0.09 | 91 | 1008.9 |
| 20260506113003 | 49 | 34 | 4.0 | 14.0 | 0.01 | 0.09 | 0.09 | 91 | 1008.9 |
| 20260506112504 | 50 | 21 | 4.0 | 12.0 | 0.02 | 0.09 | 0.09 | 92 | 1008.9 |
| 20260506112010 | 50 | 15 | 4.0 | 11.0 | 0.02 | 0.09 | 0.09 | 91 | 1008.8 |
| 20260506111510 | 50 | 18 | 4.0 | 12.0 | 0.01 | 0.08 | 0.08 | 91 | 1008.8 |
| 20260506111003 | 50 | 15 | 3.0 | 12.0 | 0.01 | 0.08 | 0.08 | 91 | 1008.8 |
| 20260506110505 | 50 | 15 | 3.0 | 10.0 | 0.01 | 0.08 | 0.08 | 92 | 1008.7 |
| 20260506110003 | 50 | 18 | 4.0 | 12.0 | 0.01 | 0.08 | 0.08 | 92 | 1008.8 |
| 20260506105507 | 50 | 20 | 4.0 | 12.0 | 0.01 | 0.08 | 0.08 | 91 | 1008.7 |
| 20260506105003 | 50 | 24 | 4.0 | 11.0 | 0.01 | 0.08 | 0.08 | 91 | 1008.8 |
| 20260506104718 | 50 | 27 | 4.0 | 11.0 | 0.01 | 0.08 | 0.08 | 91 | 1008.7 |
| 20260506104003 | 50 | 30 | 4.0 | 11.0 | 0.02 | 0.08 | 0.08 | 92 | 1008.7 |
| 20260506103510 | 50 | 19 | 4.0 | 12.0 | 0.02 | 0.08 | 0.08 | 91 | 1008.7 |
| 20260506103003 | 50 | 17 | 4.0 | 12.0 | 0.02 | 0.08 | 0.08 | 91 | 1008.6 |
| 20260506102505 | 50 | 21 | 4.0 | 12.0 | 0.01 | 0.07 | 0.07 | 92 | 1008.5 |
| 20260506102008 | 50 | 16 | 4.0 | 12.0 | 0.01 | 0.07 | 0.07 | 92 | 1008.5 |
| 20260506101503 | 50 | 24 | 4.0 | 10.0 | 0.01 | 0.07 | 0.07 | 92 | 1008.5 |
| 20260506101004 | 50 | 39 | 4.0 | 13.0 | 0.01 | 0.07 | 0.07 | 92 | 1008.5 |
| 20260506100507 | 50 | 32 | 5.0 | 13.0 | 0.01 | 0.07 | 0.07 | 92 | 1008.4 |
| 20260506100006 | 50 | 30 | 4.0 | 12.0 | 0.01 | 0.07 | 0.07 | 92 | 1008.3 |
| 20260506095505 | 50 | 31 | 4.0 | 12.0 | 0.01 | 0.07 | 0.07 | 92 | 1008.3 |
| 20260506095003 | 50 | 23 | 3.0 | 12.0 | 0.01 | 0.07 | 0.07 | 92 | 1008.3 |
| 20260506094503 | 50 | 22 | 2.0 | 8.0 | 0.01 | 0.07 | 0.07 | 92 | 1008.4 |
| 20260506094005 | 50 | 23 | 3.0 | 9.0 | 0.00 | 0.06 | 0.06 | 92 | 1008.3 |
| 20260506093504 | 49 | 27 | 4.0 | 12.0 | 0.00 | 0.06 | 0.06 | 92 | 1008.3 |
| 20260506093005 | 49 | 29 | 5.0 | 12.0 | 0.00 | 0.06 | 0.06 | 92 | 1008.3 |
| 20260506092505 | 49 | 30 | 5.0 | 14.0 | 0.00 | 0.06 | 0.06 | 92 | 1008.3 |
| 20260506092011 | 49 | 29 | 5.0 | 14.0 | 0.00 | 0.06 | 0.06 | 92 | 1008.3 |
| 20260506091506 | 49 | 21 | 4.0 | 11.0 | 0.01 | 0.06 | 0.06 | 92 | 1008.2 |
| 20260506091005 | 49 | 27 | 4.0 | 12.0 | 0.01 | 0.06 | 0.06 | 92 | 1008.2 |
| 20260506090503 | 49 | 35 | 5.0 | 15.0 | 0.01 | 0.06 | 0.06 | 92 | 1008.1 |
| 20260506090003 | 49 | 37 | 4.0 | 15.0 | 0.01 | 0.06 | 0.06 | 93 | 1008.1 |
| 20260506085718 | 49 | 35 | 5.0 | 15.0 | 0.01 | 0.06 | 0.06 | 92 | 1008.1 |
| 20260506085003 | 49 | 24 | 5.0 | 13.0 | 0.01 | 0.06 | 0.06 | 93 | 1008.1 |
| 20260506084504 | 49 | 28 | 4.0 | 13.0 | 0.01 | 0.06 | 0.06 | 93 | 1008.0 |
| 20260506084005 | 49 | 22 | 3.0 | 9.0 | 0.01 | 0.06 | 0.06 | 93 | 1008.1 |
| 20260506083506 | 49 | 17 | 2.0 | 9.0 | 0.01 | 0.06 | 0.06 | 94 | 1008.1 |
| 20260506083003 | 49 | 32 | 3.0 | 8.0 | 0.01 | 0.06 | 0.06 | 94 | 1008.1 |
| 20260506082720 | 48 | 23 | 3.0 | 9.0 | 0.01 | 0.06 | 0.06 | 94 | 1008.0 |
| 20260506082003 | 48 | 15 | 4.0 | 11.0 | 0.01 | 0.06 | 0.06 | 94 | 1008.1 |
| 20260506081503 | 48 | 27 | 4.0 | 11.0 | 0.00 | 0.06 | 0.06 | 93 | 1008.1 |
| 20260506081006 | 48 | 28 | 3.0 | 10.0 | 0.00 | 0.06 | 0.06 | 94 | 1008.0 |
| 20260506080720 | 48 | 28 | 4.0 | 10.0 | 0.00 | 0.06 | 0.06 | 94 | 1008.1 |
| 20260506073504 | 48 | 32 | 4.0 | 10.0 | 0.01 | 0.06 | 0.06 | 94 | 1007.8 |
| 20260506073003 | 48 | 37 | 3.0 | 10.0 | 0.01 | 0.07 | 0.06 | 95 | 1007.8 |
| 20260506072504 | 48 | 37 | 3.0 | 9.0 | 0.02 | 0.07 | 0.06 | 95 | 1007.8 |
| 20260506072003 | 48 | 33 | 3.0 | 11.0 | 0.02 | 0.07 | 0.06 | 95 | 1007.8 |
| 20260506071719 | 48 | 37 | 3.0 | 11.0 | 0.02 | 0.07 | 0.06 | 95 | 1007.8 |
| 20260506071005 | 48 | 37 | 3.0 | 8.0 | 0.02 | 0.08 | 0.06 | 95 | 1007.8 |
| 20260506070504 | 47 | 31 | 3.0 | 9.0 | 0.02 | 0.08 | 0.06 | 94 | 1007.8 |
| 20260506062005 | 48 | 32 | 4.0 | 11.0 | 0.01 | 0.07 | 0.04 | 94 | 1007.5 |
| 20260506061504 | 49 | 22 | 3.0 | 11.0 | 0.00 | 0.06 | 0.03 | 95 | 1007.4 |
| 20260506061222 | 49 | 19 | 3.0 | 8.0 | 0.00 | 0.06 | 0.03 | 95 | 1007.4 |
| 20260506060717 | 49 | 14 | 3.0 | 8.0 | 0.00 | 0.06 | 0.03 | 95 | 1007.4 |
| 20260506051003 | 48 | 22 | 3.0 | 8.0 | 0.00 | 0.06 | 0.03 | 95 | 1007.2 |
| 20260506050504 | 48 | 13 | 3.0 | 8.0 | 0.00 | 0.06 | 0.03 | 95 | 1007.1 |
| 20260506045003 | 48 | 23 | 2.0 | 5.0 | 0.00 | 0.06 | 0.03 | 95 | 1007.2 |
| 20260506044505 | 48 | 15 | 2.0 | 7.0 | 0.00 | 0.06 | 0.03 | 95 | 1007.3 |
| 20260506044003 | 48 | 10 | 1.0 | 7.0 | 0.00 | 0.06 | 0.03 | 95 | 1007.3 |
| 20260506043503 | 48 | 358 | 1.0 | 6.0 | 0.00 | 0.06 | 0.03 | 95 | 1007.3 |
| 20260506043005 | 48 | 359 | 2.0 | 6.0 | 0.00 | 0.06 | 0.03 | 95 | 1007.2 |
| 20260506042505 | 48 | 9 | 2.0 | 7.0 | 0.00 | 0.06 | 0.03 | 95 | 1007.2 |
| 20260506042221 | 48 | 14 | 2.0 | 7.0 | 0.00 | 0.06 | 0.03 | 95 | 1007.2 |
| 20260506041505 | 48 | 37 | 2.0 | 5.0 | 0.00 | 0.06 | 0.03 | 95 | 1007.2 |
| 20260506041003 | 48 | 26 | 2.0 | 5.0 | 0.00 | 0.06 | 0.03 | 95 | 1007.3 |
| 20260506040505 | 48 | 20 | 3.0 | 5.0 | 0.00 | 0.06 | 0.03 | 95 | 1007.3 |
| 20260506040003 | 48 | 10 | 2.0 | 8.0 | 0.00 | 0.06 | 0.03 | 95 | 1007.3 |
| 20260506035504 | 48 | 8 | 2.0 | 8.0 | 0.00 | 0.06 | 0.03 | 95 | 1007.3 |
| 20260506035003 | 48 | 15 | 1.0 | 4.0 | 0.00 | 0.06 | 0.03 | 95 | 1007.3 |
| 20260506034504 | 48 | 17 | 1.0 | 5.0 | 0.00 | 0.06 | 0.03 | 95 | 1007.4 |
| 20260506034003 | 48 | 23 | 1.0 | 5.0 | 0.00 | 0.06 | 0.03 | 95 | 1007.4 |
| 20260506033506 | 48 | 13 | 2.0 | 6.0 | 0.00 | 0.06 | 0.03 | 95 | 1007.5 |
| 20260506033003 | 48 | 9 | 2.0 | 6.0 | 0.00 | 0.06 | 0.03 | 95 | 1007.5 |
| 20260506032718 | 48 | 6 | 2.0 | 6.0 | 0.00 | 0.06 | 0.03 | 95 | 1007.5 |
| 20260506032004 | 48 | 352 | 2.0 | 6.0 | 0.01 | 0.06 | 0.03 | 95 | 1007.5 |
| 20260506031503 | 48 | 360 | 2.0 | 6.0 | 0.01 | 0.06 | 0.03 | 95 | 1007.6 |
| 20260506031007 | 48 | 5 | 2.0 | 5.0 | 0.01 | 0.06 | 0.03 | 95 | 1007.6 |
| 20260506030503 | 48 | 352 | 3.0 | 6.0 | 0.01 | 0.06 | 0.03 | 95 | 1007.6 |
| 20260506030005 | 48 | 350 | 3.0 | 6.0 | 0.01 | 0.06 | 0.03 | 95 | 1007.6 |
| 20260506025506 | 48 | 357 | 2.0 | 5.0 | 0.01 | 0.07 | 0.03 | 95 | 1007.7 |
| 20260506025005 | 48 | 354 | 2.0 | 6.0 | 0.02 | 0.07 | 0.03 | 95 | 1007.7 |
| 20260506024503 | 48 | 357 | 1.0 | 6.0 | 0.02 | 0.07 | 0.03 | 95 | 1007.7 |
| 20260506024005 | 48 | 5 | 2.0 | 8.0 | 0.02 | 0.07 | 0.03 | 95 | 1007.7 |
| 20260506023504 | 48 | 2 | 2.0 | 8.0 | 0.02 | 0.07 | 0.03 | 95 | 1007.7 |
| 20260506023004 | 48 | 360 | 2.0 | 8.0 | 0.02 | 0.07 | 0.03 | 95 | 1007.8 |
| 20260506022503 | 48 | 6 | 2.0 | 8.0 | 0.01 | 0.06 | 0.02 | 95 | 1007.8 |
| 20260506022003 | 48 | 7 | 3.0 | 9.0 | 0.01 | 0.07 | 0.02 | 95 | 1007.9 |
| 20260506021503 | 48 | 360 | 3.0 | 9.0 | 0.01 | 0.07 | 0.02 | 95 | 1007.9 |
| 20260506021005 | 48 | 356 | 2.0 | 9.0 | 0.02 | 0.07 | 0.02 | 95 | 1008.0 |
| 20260506020505 | 48 | 10 | 3.0 | 9.0 | 0.02 | 0.07 | 0.02 | 94 | 1008.0 |
| 20260506020003 | 48 | 16 | 3.0 | 8.0 | 0.02 | 0.07 | 0.02 | 94 | 1008.1 |
| 20260506015505 | 48 | 8 | 3.0 | 9.0 | 0.02 | 0.07 | 0.02 | 94 | 1008.0 |
| 20260506015006 | 48 | 6 | 3.0 | 9.0 | 0.02 | 0.06 | 0.02 | 94 | 1008.1 |
| 20260506014717 | 48 | 11 | 3.0 | 8.0 | 0.02 | 0.06 | 0.02 | 94 | 1008.0 |
| 20260506014005 | 48 | 30 | 3.0 | 8.0 | 0.02 | 0.07 | 0.02 | 94 | 1008.1 |
| 20260506013503 | 49 | 26 | 3.0 | 10.0 | 0.02 | 0.08 | 0.02 | 94 | 1008.1 |
| 20260506013003 | 49 | 25 | 3.0 | 10.0 | 0.02 | 0.10 | 0.02 | 94 | 1008.2 |
| 20260506012504 | 49 | 26 | 3.0 | 8.0 | 0.02 | 0.13 | 0.02 | 94 | 1008.2 |
| 20260506012006 | 48 | 22 | 4.0 | 11.0 | 0.02 | 0.15 | 0.02 | 94 | 1008.2 |
| 20260506011504 | 48 | 23 | 4.0 | 11.0 | 0.02 | 0.16 | 0.02 | 94 | 1008.2 |
| 20260506011005 | 48 | 21 | 3.0 | 9.0 | 0.01 | 0.16 | 0.01 | 94 | 1008.3 |
| 20260506010503 | 48 | 18 | 3.0 | 10.0 | 0.01 | 0.17 | 0.01 | 94 | 1008.2 |
| 20260506010005 | 48 | 28 | 3.0 | 10.0 | 0.00 | 0.17 | 0.00 | 94 | 1008.3 |
| 20260506005717 | 48 | 31 | 3.0 | 11.0 | 0.00 | 0.17 | 0.00 | 94 | 1008.3 |
| 20260506005004 | 48 | 29 | 4.0 | 11.0 | 0.00 | 0.20 | 0.00 | 94 | 1008.3 |
| 20260506004717 | 48 | 30 | 3.0 | 9.0 | 0.00 | 0.20 | 0.00 | 94 | 1008.4 |
| 20260506004005 | 48 | 25 | 3.0 | 13.0 | 0.00 | 0.24 | 0.00 | 94 | 1008.4 |
| 20260506003503 | 48 | 32 | 3.0 | 10.0 | 0.00 | 0.25 | 0.00 | 94 | 1008.5 |
| 20260506003004 | 48 | 27 | 3.0 | 10.0 | 0.00 | 0.28 | 0.00 | 94 | 1008.5 |
| 20260506002719 | 48 | 25 | 3.0 | 10.0 | 0.00 | 0.28 | 0.00 | 94 | 1008.5 |
| 20260506002003 | 48 | 28 | 3.0 | 8.0 | 0.00 | 0.30 | 0.00 | 94 | 1008.5 |
| 20260506001505 | 48 | 18 | 3.0 | 9.0 | 0.00 | 0.31 | 0.00 | 94 | 1008.5 |
| 20260506001003 | 48 | 10 | 3.0 | 9.0 | 0.00 | 0.33 | 0.00 | 94 | 1008.6 |
| 20260506000507 | 48 | 26 | 3.0 | 9.0 | 0.00 | 0.35 | 0.00 | 94 | 1008.6 |
| 20260506000003 | 48 | 27 | 3.0 | 9.0 | 0.00 | 0.35 | 0.00 | 94 | 1008.7 |
| 20260505235504 | 48 | 20 | 4.0 | 10.0 | 0.00 | 0.36 | 0.00 | 94 | 1008.7 |
| 20260505235003 | 48 | 16 | 4.0 | 10.0 | 0.00 | 0.36 | 0.00 | 94 | 1008.7 |
| 20260505234505 | 48 | 16 | 3.0 | 10.0 | 0.00 | 0.37 | 0.00 | 94 | 1008.7 |
| 20260505234004 | 48 | 23 | 3.0 | 8.0 | 0.00 | 0.38 | 0.00 | 93 | 1008.8 |
| 20260505233508 | 48 | 26 | 3.0 | 9.0 | 0.00 | 0.38 | 0.00 | 93 | 1008.8 |
| 20260505233007 | 48 | 20 | 3.0 | 9.0 | 0.00 | 0.39 | 0.00 | 93 | 1008.9 |
| 20260505232503 | 48 | 19 | 3.0 | 9.0 | 0.00 | 0.39 | 0.00 | 93 | 1008.9 |
| 20260505232003 | 49 | 29 | 3.0 | 10.0 | 0.00 | 0.39 | 0.00 | 93 | 1009.0 |
| 20260505231503 | 49 | 22 | 3.0 | 10.0 | 0.00 | 0.39 | 0.00 | 93 | 1008.9 |
| 20260505231005 | 49 | 20 | 3.0 | 9.0 | 0.00 | 0.39 | 0.00 | 92 | 1009.1 |
| 20260505230505 | 49 | 20 | 3.0 | 9.0 | 0.00 | 0.39 | 0.00 | 92 | 1009.0 |
| 20260505230003 | 49 | 20 | 3.0 | 10.0 | 0.00 | 0.39 | 0.00 | 92 | 1009.1 |
| 20260505225504 | 49 | 18 | 4.0 | 10.0 | 0.00 | 0.39 | 0.00 | 92 | 1009.1 |
| 20260505225003 | 49 | 21 | 4.0 | 10.0 | 0.00 | 0.39 | 0.00 | 92 | 1009.1 |
| 20260505224503 | 49 | 20 | 4.0 | 13.0 | 0.00 | 0.39 | 0.00 | 91 | 1009.1 |
| 20260505224006 | 49 | 9 | 3.0 | 13.0 | 0.00 | 0.39 | 0.00 | 91 | 1009.2 |
| 20260505223505 | 49 | 14 | 4.0 | 15.0 | 0.00 | 0.40 | 0.00 | 91 | 1009.2 |
| 20260505223008 | 49 | 15 | 3.0 | 15.0 | 0.00 | 0.40 | 0.00 | 91 | 1009.2 |
| 20260505222504 | 49 | 18 | 3.0 | 9.0 | 0.00 | 0.41 | 0.00 | 91 | 1009.2 |
| 20260505222005 | 49 | 23 | 5.0 | 11.0 | 0.00 | 0.41 | 0.00 | 90 | 1009.3 |
| 20260505221505 | 50 | 26 | 5.0 | 11.0 | 0.00 | 0.41 | 0.00 | 90 | 1009.4 |
| 20260505221217 | 50 | 25 | 4.0 | 10.0 | 0.00 | 0.41 | 0.00 | 90 | 1009.3 |
| 20260505220508 | 50 | 27 | 3.0 | 14.0 | 0.00 | 0.41 | 0.00 | 89 | 1009.4 |
| 20260505220005 | 50 | 32 | 4.0 | 14.0 | 0.00 | 0.42 | 0.00 | 89 | 1009.4 |
| 20260505215504 | 50 | 33 | 3.0 | 11.0 | 0.00 | 0.43 | 0.42 | 89 | 1009.4 |
| 20260505215003 | 50 | 24 | 4.0 | 12.0 | 0.00 | 0.43 | 0.42 | 89 | 1009.4 |
| 20260505214506 | 50 | 21 | 4.0 | 12.0 | 0.00 | 0.43 | 0.42 | 88 | 1009.3 |
| 20260505214005 | 50 | 17 | 4.0 | 11.0 | 0.00 | 0.43 | 0.42 | 88 | 1009.4 |
| 20260505213504 | 50 | 23 | 5.0 | 12.0 | 0.00 | 0.43 | 0.42 | 88 | 1009.4 |
| 20260505213003 | 50 | 24 | 6.0 | 13.0 | 0.00 | 0.44 | 0.42 | 88 | 1009.4 |
| 20260505212503 | 50 | 19 | 5.0 | 13.0 | 0.00 | 0.44 | 0.42 | 88 | 1009.4 |
| 20260505212007 | 50 | 19 | 4.0 | 11.0 | 0.00 | 0.45 | 0.42 | 89 | 1009.6 |
| 20260505211505 | 50 | 22 | 4.0 | 11.0 | 0.00 | 0.46 | 0.42 | 88 | 1009.5 |
| 20260505211218 | 51 | 23 | 4.0 | 11.0 | 0.00 | 0.46 | 0.42 | 88 | 1009.5 |
| 20260505210503 | 51 | 5 | 4.0 | 11.0 | 0.00 | 0.46 | 0.42 | 88 | 1009.5 |
| 20260505210218 | 51 | 6 | 4.0 | 11.0 | 0.00 | 0.46 | 0.42 | 88 | 1009.6 |
| 20260505205503 | 51 | 25 | 4.0 | 10.0 | 0.00 | 0.47 | 0.42 | 88 | 1009.6 |
| 20260505205005 | 51 | 17 | 4.0 | 11.0 | 0.00 | 0.47 | 0.42 | 88 | 1009.6 |
| 20260505204508 | 51 | 14 | 5.0 | 11.0 | 0.00 | 0.47 | 0.42 | 87 | 1009.5 |
| 20260505204008 | 51 | 19 | 4.0 | 11.0 | 0.00 | 0.48 | 0.42 | 87 | 1009.6 |
| 20260505203717 | 51 | 11 | 4.0 | 13.0 | 0.00 | 0.49 | 0.42 | 87 | 1009.6 |
| 20260505203004 | 51 | 12 | 5.0 | 13.0 | 0.00 | 0.50 | 0.42 | 87 | 1009.6 |
| 20260505202504 | 51 | 22 | 5.0 | 13.0 | 0.00 | 0.50 | 0.42 | 87 | 1009.6 |
| 20260505202004 | 51 | 19 | 4.0 | 13.0 | 0.00 | 0.50 | 0.42 | 87 | 1009.6 |
| 20260505201504 | 52 | 10 | 4.0 | 13.0 | 0.00 | 0.52 | 0.42 | 86 | 1009.6 |
| 20260505201003 | 52 | 15 | 3.0 | 13.0 | 0.00 | 0.54 | 0.42 | 86 | 1009.6 |
| 20260505200506 | 52 | 17 | 4.0 | 11.0 | 0.00 | 0.55 | 0.42 | 86 | 1009.7 |
| 20260505200218 | 52 | 15 | 4.0 | 11.0 | 0.00 | 0.56 | 0.42 | 86 | 1009.6 |
| 20260505195507 | 52 | 14 | 4.0 | 13.0 | 0.00 | 0.57 | 0.42 | 86 | 1009.7 |
| 20260505195005 | 52 | 12 | 4.0 | 13.0 | 0.00 | 0.57 | 0.42 | 86 | 1009.6 |
| 20260505194503 | 52 | 16 | 4.0 | 12.0 | 0.00 | 0.58 | 0.42 | 86 | 1009.6 |
| 20260505194218 | 52 | 16 | 4.0 | 12.0 | 0.00 | 0.58 | 0.42 | 86 | 1009.7 |
| 20260505193503 | 52 | 22 | 3.0 | 12.0 | 0.00 | 0.58 | 0.42 | 86 | 1009.6 |
| 20260505193005 | 52 | 22 | 3.0 | 12.0 | 0.00 | 0.59 | 0.42 | 86 | 1009.6 |
| 20260505192503 | 52 | 23 | 4.0 | 12.0 | 0.00 | 0.59 | 0.42 | 85 | 1009.6 |
| 20260505192010 | 52 | 17 | 3.0 | 9.0 | 0.00 | 0.59 | 0.42 | 85 | 1009.5 |
| 20260505191505 | 52 | 5 | 3.0 | 8.0 | 0.00 | 0.59 | 0.42 | 85 | 1009.5 |
| 20260505191003 | 52 | 1 | 3.0 | 8.0 | 0.00 | 0.59 | 0.42 | 85 | 1009.5 |
| 20260505190719 | 52 | 358 | 4.0 | 10.0 | 0.00 | 0.59 | 0.42 | 85 | 1009.5 |
| 20260505190004 | 52 | 13 | 3.0 | 10.0 | 0.00 | 0.59 | 0.42 | 84 | 1009.3 |
| 20260505185508 | 52 | 22 | 3.0 | 10.0 | 0.00 | 0.59 | 0.42 | 84 | 1009.4 |
| 20260505185003 | 52 | 24 | 4.0 | 9.0 | 0.00 | 0.59 | 0.42 | 84 | 1009.4 |
| 20260505184506 | 52 | 27 | 4.0 | 11.0 | 0.00 | 0.59 | 0.42 | 84 | 1009.4 |
| 20260505184005 | 52 | 20 | 4.0 | 14.0 | 0.00 | 0.59 | 0.42 | 84 | 1009.3 |
| 20260505183504 | 52 | 21 | 4.0 | 14.0 | 0.00 | 0.59 | 0.42 | 84 | 1009.4 |
| 20260505183003 | 53 | 22 | 3.0 | 10.0 | 0.00 | 0.59 | 0.42 | 85 | 1009.3 |
| 20260505182503 | 53 | 16 | 3.0 | 10.0 | 0.00 | 0.59 | 0.42 | 85 | 1009.3 |
| 20260505182007 | 53 | 9 | 3.0 | 10.0 | 0.00 | 0.59 | 0.42 | 85 | 1009.3 |
| 20260505181503 | 53 | 12 | 4.0 | 9.0 | 0.00 | 0.59 | 0.42 | 85 | 1009.3 |
| 20260505181003 | 53 | 9 | 4.0 | 13.0 | 0.00 | 0.59 | 0.42 | 85 | 1009.4 |
| 20260505180503 | 53 | 12 | 3.0 | 13.0 | 0.00 | 0.59 | 0.42 | 85 | 1009.4 |
| 20260505180003 | 53 | 23 | 4.0 | 10.0 | 0.00 | 0.59 | 0.42 | 85 | 1009.4 |
| 20260505175503 | 53 | 19 | 4.0 | 10.0 | 0.00 | 0.59 | 0.42 | 85 | 1009.4 |
| 20260505175221 | 53 | 16 | 4.0 | 10.0 | 0.00 | 0.59 | 0.42 | 86 | 1009.4 |
| 20260505174718 | 53 | 16 | 4.0 | 10.0 | 0.00 | 0.59 | 0.42 | 86 | 1009.4 |
| 20260505174004 | 53 | 24 | 3.0 | 10.0 | 0.00 | 0.59 | 0.42 | 86 | 1009.5 |
| 20260505173503 | 53 | 30 | 4.0 | 10.0 | 0.00 | 0.59 | 0.42 | 86 | 1009.5 |
| 20260505173003 | 53 | 30 | 4.0 | 10.0 | 0.00 | 0.59 | 0.42 | 86 | 1009.5 |
| 20260505172720 | 53 | 23 | 4.0 | 10.0 | 0.00 | 0.59 | 0.42 | 86 | 1009.5 |
| 20260505172004 | 53 | 11 | 4.0 | 11.0 | 0.00 | 0.59 | 0.42 | 86 | 1009.5 |
| 20260505171503 | 53 | 10 | 4.0 | 11.0 | 0.00 | 0.59 | 0.42 | 86 | 1009.4 |
| 20260505171005 | 53 | 11 | 3.0 | 9.0 | 0.00 | 0.59 | 0.42 | 87 | 1009.6 |
| 20260505170506 | 53 | 20 | 4.0 | 9.0 | 0.00 | 0.59 | 0.42 | 87 | 1009.5 |
| 20260505170010 | 53 | 23 | 3.0 | 12.0 | 0.00 | 0.59 | 0.42 | 87 | 1009.5 |
| 20260505165505 | 53 | 8 | 3.0 | 12.0 | 0.00 | 0.59 | 0.42 | 86 | 1009.6 |
| 20260505165008 | 53 | 360 | 3.0 | 9.0 | 0.00 | 0.59 | 0.42 | 86 | 1009.6 |
| 20260505164720 | 53 | 3 | 4.0 | 9.0 | 0.00 | 0.59 | 0.42 | 86 | 1009.6 |
| 20260505164003 | 53 | 18 | 3.0 | 9.0 | 0.00 | 0.59 | 0.42 | 87 | 1009.7 |
| 20260505163508 | 53 | 25 | 3.0 | 9.0 | 0.00 | 0.59 | 0.42 | 86 | 1009.7 |
| 20260505163003 | 53 | 18 | 3.0 | 10.0 | 0.00 | 0.59 | 0.42 | 87 | 1009.7 |
| 20260505162720 | 53 | 18 | 3.0 | 10.0 | 0.00 | 0.59 | 0.42 | 87 | 1009.8 |
| 20260505162004 | 53 | 26 | 4.0 | 11.0 | 0.00 | 0.59 | 0.42 | 87 | 1009.7 |
| 20260505161505 | 53 | 26 | 3.0 | 9.0 | 0.00 | 0.59 | 0.42 | 87 | 1009.7 |
| 20260505161005 | 54 | 25 | 3.0 | 9.0 | 0.00 | 0.59 | 0.42 | 87 | 1009.8 |
| 20260505160505 | 54 | 28 | 3.0 | 7.0 | 0.00 | 0.59 | 0.42 | 87 | 1009.8 |
| 20260505153218 | 54 | 26 | 3.0 | 12.0 | 0.00 | 0.59 | 0.42 | 86 | 1010.0 |
| 20260505152721 | 54 | 16 | 3.0 | 12.0 | 0.00 | 0.59 | 0.42 | 86 | 1010.0 |